User: anonymous   Login
Location: Bush Observatory
(40.2653°N, 94.3194°W)
Time: 13:12:32
(UTC-06:00)
Language:

Cosmos 1933 Rocket - Orbit

View from above orbital plane
View from above orbital plane
View from above satellite
View from above satellite

Ground track
Ground track

The orbit data is extracted from the following two-line orbital elements,

1 18959U 88020B   17050.04223366  .00000092  00000-0  82754-5 0  9991
2 18959  82.5381  21.2100 0017299 161.8292 198.3545 14.83322769563064
Epoch (UTC): 19 February 2017 01:00:48
Eccentricity: 0.0017299
inclination: 82.5381°
perigee height: 607 km
apogee height: 631 km
right ascension of ascending node: 21.2100°
argument of perigee: 161.8292°
revolutions per day: 14.83322769
mean anomaly at epoch: 198.3545°
orbit number at epoch: 56306

The dashed part of the orbit path shows where the satellite is in the earth's shadow,  

DLR